DECAYED

DMSP 5D-2 F13 DEB, 40492 (Decayed)

Orbit data source: Space-Track

DMSP 5D-2 F13 DEB, 40492 was space debris in SSO originally from a launch on Fri, 24 Mar 1995 UTC launched from the Air Force Western Test Range (AFWTR). Debris objects in space refer to the collection of defunct objects orbiting the Earth. Examples of debris include non-operational satellites, rocket bodies, and fragments generated from explosions, collisions, or faulty payload assembly.

Loading next visibility...
DMSP 5D-2 F13 DEB details
Identifier
40492, 1995-015CF
Orbit
Decayed
Last TLE update3 months ago
Origin
Flag of USUSAF SMC (US)
ManufacturerUnknown
MissionDecayed spacecraft
Bus & MotorUnknown
MassUnknown
Launch date (UTC)
1995-03-24 (30 years ago)
Launch vehicleUnknown
Launch site
Air Force Western Test Range (AFWTR)
Object type
Payload
Rocket body
Debris
Shape & HBRUnknown
Radar Cross SectionSmall (<0.1 m²)

Expand to show TLE details & history

TLE from 3 months ago
0 DMSP 5D-2 F13 DEB
1 40492U 95015CF  24285.35538687  .00258596  00000-0  81796-1 0  9992
2 40492  98.6332 316.8694 0023130 323.4972  36.4637 14.38120493498339
Epoch: 2024-10-11T08:31Z
Definitive object data (Epoch: 2024-10-11T08:31:45.425Z)
Latitude-0.00004°
Longitude168.50337°
Altitude754.381 km
Speed7.484 km/s
True Right ascension21h 07m 28s
True Declination0° 00' 00"
Sunlit
Object was in full shadow at TLE epoch
Visualization TLE readout
Latitude-20.80186°
Longitude-108.98677°
Altitude565.064 km
Speed7.575 km/s
Apparent Right ascension04h 40m 09s
Apparent Declination-35° 20' 51"
Sunlit
Object is in full shadow
Visualization observer readout
Local Sidereal Time19:30:15
Azimuth96.006° ESE
Elevation-56.334°
Doppler factor1
Orbital elements
Apogee altitude778.361 km
Perigee altitude745.331 km
Semi-major axis7,139.983 km
Eccentricity0.002313
Inclination98.6332°
RAAN316.8694°
Arg. of periapsis323.4972°
True anomaly36.62159°
Mean anomaly36.4637°
Eccentric anomaly36.54261°
Mean motion3.59747 °/min
BSTAR0.081796
Orbital period100.07 mins
Loading maneuver chart data...

DMSP 5D-2 F13 DEB Visibility forecast

Observer location: undefined°, undefined

Span
Click to sort rows by Start time (UTC) header in descending order
Start Az.
Max El. time (UTC)
Max El. Az.
Max El.
End time (UTC)
End Az.
5 mins2024-12-27 02:44:28.572Z185.387° SSW2024-12-27 02:46:28.572Z242.652° WSW40.316°2024-12-27 02:49:28.572Z334.732° NNW
5 mins2024-12-27 15:56:28.572Z344.946° N2024-12-27 15:58:28.572Z289.941° WNW32.545°2024-12-27 16:01:28.572Z223.023° SW
|